Regional Weather Roundup
Issued by NWS

Home | Current Version | Previous Version | Graphics & Text | Print | Product List | Glossary On
Versions: 1 2 3 4 5 6 7 8 9 10 11 12 13 14 15 16 17 18 19 20 21 22 23 24 25 26 27 28 29 30 31 32 33 34 35 36 37 38 39 40 41 42 43 44 45 46 47 48 49 50
000
ASUS43 KLOT 260908
RWRIL

ILLINOIS REGIONAL WEATHER ROUNDUP
NATIONAL WEATHER SERVICE CHICAGO/ROMEOVILLE IL
400 AM CDT SUN MAR 26 2017

NOTE: "FAIR" INDICATES FEW OR NO CLOUDS BELOW 12,000 FEET WITH NO
SIGNIFICANT WEATHER AND/OR OBSTRUCTIONS TO VISIBILITY.

* THESE STATIONS ARE NOT UNDER NWS QUALITY CONTROL. THEY ALSO MAY NOT
  REPORT WEATHER SUCH AS PRECIPITATION OR FOG.

ILZ001-002-007-009-015-016-024-261000-
NORTHWEST ILLINOIS

CITY           SKY/WX    TMP DP  RH WIND       PRES   REMARKS
MOLINE         FOG       48  47  96 E6        29.80F VSB 1/4
STERLING*      CLOUDY    50  49  96 E10       29.83S FOG
SAVANNA*       CLOUDY    46  45  98 NE10      29.84S FOG
$$

ILZ003-004-008-010-011-017-018-261000-
NORTH CENTRAL ILLINOIS

CITY           SKY/WX    TMP DP  RH WIND       PRES   REMARKS
ROCKFORD       CLOUDY    47  44  90 E10       29.88F FOG
FREEPORT*      FOG       43  43  99 NE8       29.88F VSB 3/4
ROCHELLE*      CLOUDY    48  48 100 E10       29.84F FOG
DE KALB*       FOG       47  47  99 E10       29.86F VSB 1/2
PERU*          CLOUDY    53  52  97 E8        29.83F FOG
$$

ILZ005-006-012>014-019>023-261000-
NORTHEAST ILLINOIS

CITY           SKY/WX    TMP DP  RH WIND       PRES   REMARKS
CHICAGO-OHARE  CLOUDY    47  45  93 NE6       29.88F FOG
CHICAGO-MIDWAY LGT RAIN  48  48 100 VRB6      29.88F FOG
AURORA         CLOUDY    51  49  92 NE9       29.86F FOG
LANSING*       LGT RAIN  51  51 100 SE8       29.88F
JOLIET*        CLOUDY    55  54  97 SE7       29.86F FOG
WAUKEGAN       FOG       41  41 100 NE7       29.90F VSB 1/4
DUPAGE AIRPORT CLOUDY    48  48 100 E6        29.86F FOG
KANKAKEE*      CLOUDY    55  54  97 SE7       29.86F
WHEELING       CLOUDY    44  44 100 E5        29.90F FOG
MORRIS*        CLOUDY    54  52  95 E8        29.84S FOG
ROMEOVILLE*    CLOUDY    53  53 100 SE12      29.86F
$$

LMZ740>746-261000-
SOUTHERN LAKE MICHIGAN

STATION/POSITION SKY/WX   TEMP    WIND        PRES    VSBY  WAVE
                          AIR SEA DIR/SP/G                  HT/PER
                          (F)     (DEG/KT/KT) (MB)    (MI)  (FT/S)
HARRISON CRIB              43     100/ 10/ 10   N/A
BURNHAM HARBOR             42      50/  2/  4   N/A
CALUMET HARBOR             44      90/  3/  4 1011.7F
BURNS HARBOR               52     130/ 14/ 18 1012.9F
MICHIGAN CITY              48     110/ 12/ 14   N/A
$$

ILZ025>027-034>036-040-047-049-050-058-095>099-261000-
WEST-CENTRAL ILLINOIS

CITY           SKY/WX    TMP DP  RH WIND       PRES   REMARKS
QUINCY         CLOUDY    51  51 100 S13       29.78S FOG
GALESBURG*     CLOUDY    55  54  97 SE5       29.79S
MACOMB*        CLOUDY    54  53  97 S8        29.80F
JACKSONVILLE*  CLOUDY    52  50  91 S10G17    29.82S
PITTSFIELD*    CLOUDY    51  50  95 S13       29.82S
$$

ILZ028>032-037-038-041>044-048-051>054-059>061-261000-
CENTRAL ILLINOIS

CITY           SKY/WX    TMP DP  RH WIND       PRES   REMARKS
PONTIAC        CLOUDY    55  55  97 E7        29.84F
BLOOMINGTON    CLOUDY    55  53  93 S7        29.84S
DECATUR        CLOUDY    56  53  90 S9        29.84S
PEORIA         CLOUDY    56  54  93 S12       29.81S
LACON*         DRIZZLE   54  54 100 E7        29.81S
LINCOLN*       MOCLDY    54  54  99 S3        29.83S
SPRINGFIELD    CLEAR     53  50  89 S7        29.82F
TAYLORVILLE    CLOUDY    52  52 100 S8        29.83S
$$

ILZ033-039-045-046-055>057-062-063-261000-
EAST-CENTRAL ILLINOIS

CITY           SKY/WX    TMP DP  RH WIND       PRES   REMARKS
CHAMPAIGN      CLOUDY    58  53  84 S8        29.84F
RANTOUL*       CLOUDY    59  58  95 SE8       29.85S
MATTOON        CLOUDY    58  54  86 S8        29.85S
PARIS*         CLOUDY    57  57  99 SE7       29.87F
$$

ILZ079-100>102-261000-
SOUTHWEST ILLINOIS

CITY           SKY/WX    TMP DP  RH WIND       PRES   REMARKS
ALTON          CLOUDY    52  49  89 SW9       29.85S
BELLEVILLE     MOCLDY    53  53  99 SW8       29.84S
CAHOKIA*       CLOUDY    55  49  80 SW5       29.85F
SPARTA*        CLOUDY    54  52  92 CALM      29.87S
$$

ILZ064>066-069>071-074>076-080>082-084>086-088>090-092>094-261000-
SOUTH-CENTRAL ILLINOIS

CITY           SKY/WX    TMP DP  RH WIND       PRES   REMARKS
CARBONDALE     CLOUDY    55  55 100 S7        29.86S
CAIRO*         CLOUDY    55  54  97 S7        29.88S
EFFINGHAM*     CLOUDY    57  56  95 S8        29.87F
MARION         CLOUDY    57  55  94 S8        29.88S
MT. VERNON     CLOUDY    56  54  93 S6        29.86S
CENTRALIA*     MOCLDY    56  55  99 CALM      29.85S
SALEM*         CLOUDY    58  55  90 S9        29.85F
METROPOLIS*    CLOUDY    56  55  95 S5        29.89F
$$

ILZ067-068-072-073-078-083-087-091-261000-
SOUTHEAST ILLINOIS

CITY           SKY/WX    TMP DP  RH WIND       PRES   REMARKS
LAWRENCEVILLE  LGT RAIN  58  57  97 S13       29.88S
FLORA*         CLOUDY    57  55  92 S7        29.86F
FAIRFIELD*     CLOUDY    56  55  94 S5        29.86S
HARRISBURG*    CLOUDY    57  55  94 S6        29.87F
ROBINSON*      CLOUDY    58  56  94 S13       29.88F
CARMI*         CLOUDY    55  55 100 SE6       29.87F
$$

ABBREVIATIONS USED IN REMARKS
   TC - TEMPERATURE IN CELSIUS
  WCI - WIND CHILL INDEX
   HX - HEAT INDEX
  VSB - VISIBILITY
$$




USA.gov is the U.S. government's official web portal to all federal, state and local government web resources and services.